UOSAT 2 (UO-11) (14781 NORAD) Tracking and Keplerian Element Data

This shows tracking and keplerian element data for the satellite.

Feedback or suggestion? Click here.




ElementValue
Catalog14781
NameUOSAT 2 (UO-11)
Epoch Orbit7613
Epoch Day270.21612858
Epoch Year2022
RAAN253.0688
Inclination97.6275
Eccentricity0.0008226
Argument of Perigee358.6399
Mean Anonmoly1.4792
Mean Motion14.83821059
Decay Rate9.88E-06
L11 14781U 84021B 22270.21612858 .00000988 00000+0 12524-3 0 9993
L22 14781 97.6275 253.0688 0008226 358.6399 1.4792 14.83821059 76133

Live tracking and technical data element details for UOSAT 2 (UO-11) (NORAD 14781). UOSAT 2 (UO-11) can be tracked NOW for your location showing map with azimuth and elevation plus other details from your city location.

Track the satellite on the map from your city or location and see movement details for azimuth, elevation, latitude, longitude, range, height, and movement on the map or in text.







IsCatalogInMostPopularTable: catalog: 14781, numindb: 679
Update: records affected: 1



GetName: 14781 UOSAT 2 (UO-11)

Hit Count: updated at: Wed, 28 Sep 2022 23:29:31 GMT